Location: East Horndon
(51.5667°N, 0.3500°E)
Time: 23:12:50
(UTC+00:00)

Cosmos 1864 Rocket - Pass Details

Date: 08 November 2025
Orbit: 951 x 995 km, 82.9° (Epoch: 04 December)

Event Time Altitude Azimuth Distance (km) Brightness Sun altitude
Rises 04:44:31 0° 349° (N) 3,679 7.4 -21.9°
Reaches altitude 10° 04:47:01 10° 349° (N) 2,734 6.7 -21.5°
Maximum altitude 04:53:19 87° 261° (W) 992 4.4 -20.5°
Drops below altitude 10° 04:59:38 10° 174° (S) 2,744 6.9 -19.6°
Sets 05:02:09 0° 174° (S) 3,693 7.6 -19.2°
